Wisdom Guild ホーム

ショップ情報

登録データ

25,748 件

検索フィルター

カード名

値段

円 ~

在庫

枚 ~

ショップあきあき登録済みカード一覧

カード名価格セット言語在庫状態最終更新最終チェック
破滅を囁くものDoom Whisperer2,916GRNJPNなし売り場18/10/16 02:2318/10/16 02:23
暗殺者の戦利品Assassin's Trophy2,700GRNJPN71 枚売り場18/10/16 02:2318/10/16 02:23
ヴラスカの侮辱Vraska's Contempt2,340XLNJPNなし売り場18/10/16 02:2318/10/16 02:23
正義の模範、オレリアAurelia, Exemplar of Justice2,484GRNJPN23 枚売り場18/10/16 02:2318/10/16 02:23
万面相、ラザーヴLazav, the Multifarious2,160GRNJPNなし売り場18/10/16 02:2318/10/16 02:23
危険因子Risk Factor1,548GRNJPN8 枚売り場18/10/16 02:2218/10/16 02:22
ゴルガリの女王、ヴラスカVraska, Golgari Queen1,152GRNJPNなし売り場18/10/16 02:2218/10/16 02:22
蒸気孔Steam Vents1,111RTRJPN2 枚売り場18/10/16 02:2218/10/16 02:22
大集団の行進March of the Multitudes1,008GRNJPN4 枚売り場18/10/16 02:2218/10/16 02:22
聖トラフトの霊Geist of Saint Traft972DDQJPNなし売り場18/10/16 02:2218/10/16 02:22
カード名価格セット言語在庫状態リンク最終更新最終チェック
蒸気孔Steam Vents900GRNJPN8 枚売り場18/10/16 02:2118/10/16 02:21
イゼット副長、ラルRal, Izzet Viceroy900GRNJPN9 枚売り場18/10/16 02:2118/10/16 02:21
湿った墓Watery Grave864GRNJPN11 枚売り場18/10/16 02:2118/10/16 02:21
草むした墓Overgrown Tomb756RTRJPNなし売り場18/10/16 02:2118/10/16 02:21
宝捕りTreasure Nabber756C18JPN16 枚売り場18/10/16 02:2118/10/16 02:21
死の溜まる地、死蔵Shizo, Death's Storehouse720CHKJPN3 枚売り場18/10/16 02:2118/10/16 02:21
聖なる鋳造所Sacred Foundry738GRNJPN29 枚売り場18/10/16 02:2118/10/16 02:21
弧光のフェニックスArclight Phoenix720GRNJPNなし売り場18/10/16 02:2118/10/16 02:21
軍勢の戦親分Legion Warboss702GRNJPN31 枚売り場18/10/16 02:2118/10/16 02:21
神聖なる泉Hallowed Fountain679RTRJPNなし売り場18/10/16 02:2118/10/16 02:21
カード名価格セット言語在庫状態リンク最終更新最終チェック
草むした墓Overgrown Tomb648GRNJPN8 枚売り場18/10/16 02:2118/10/16 02:21
遁走する蒸気族Runaway Steam-Kin594GRNJPN9 枚売り場18/10/16 02:2118/10/16 02:21
寺院の庭Temple Garden558GRNJPN43 枚売り場18/10/16 02:2018/10/16 02:20
生皮収集家Pelt Collector540GRNJPN62 枚売り場18/10/16 02:2018/10/16 02:20
夢喰いDream Eater540GRNJPN22 枚売り場18/10/16 02:2018/10/16 02:20
Najeela, the Blade-Blossom522BBDJPNなし売り場18/10/16 02:2018/10/16 02:20
万面相、ラザーヴLazav, the Multifarious450GRNJPN4 枚売り場18/10/16 02:2018/10/16 02:20
正気泥棒Thief of Sanity432GRNJPNなし売り場18/10/16 02:2018/10/16 02:20
イオン化Ionize432GRNJPN40 枚売り場18/10/16 02:2018/10/16 02:20
弧光のフェニックスArclight Phoenix396GRNJPN10 枚売り場18/10/16 02:1918/10/16 02:19
カード名価格セット言語在庫状態リンク最終更新最終チェック
任務説明Mission Briefing378GRNJPN72 枚売り場18/10/16 02:1918/10/16 02:19
ウィンドグレイス卿Lord Windgrace360C18JPN7 枚売り場18/10/16 02:1918/10/16 02:19
神聖な訪問Divine Visitation360GRNJPN35 枚売り場18/10/16 02:1918/10/16 02:19
前兆の壁Wall of Omens324EMAJPN1 枚売り場18/10/16 02:1918/10/16 02:19
竜髑髏の山頂Dragonskull Summit306C16JPN1 枚売り場18/10/16 02:1918/10/16 02:19
竜髑髏の山頂Dragonskull Summit308M11JPN5 枚売り場18/10/16 02:1918/10/16 02:19
実験の狂乱Experimental Frenzy306GRNJPN28 枚売り場18/10/16 02:1818/10/16 02:18
窒息Choke288TMPENG17 枚売り場18/10/16 02:1818/10/16 02:18
不和のトロスターニTrostani Discordant288GRNJPN10 枚売り場18/10/16 02:1818/10/16 02:18
発掘Unearth252A25JPNなし売り場18/10/16 02:1818/10/16 02:18
カード名価格セット言語在庫状態リンク最終更新最終チェック
竜髑髏の山頂Dragonskull Summit246M10JPNなし売り場18/10/16 02:1818/10/16 02:18
Grothama, All-Devouring243BBDJPNなし売り場18/10/16 02:1718/10/16 02:17
神話解放Myth Unbound243C18JPN30 枚売り場18/10/16 02:1718/10/16 02:17
貪る死肉あさりDeathgorge Scavenger234XLNJPNなし売り場18/10/16 02:1718/10/16 02:17
煤の儀式Ritual of Soot234GRNJPN47 枚売り場18/10/16 02:1718/10/16 02:17
轟音のクラリオンDeafening Clarion216GRNJPN15 枚売り場18/10/16 02:1718/10/16 02:17
真夜中の死神Midnight Reaper216GRNJPNなし売り場18/10/16 02:1718/10/16 02:17
死の男爵Death Baron207M19JPN5 枚売り場18/10/16 02:1718/10/16 02:17
パルン、ニヴ=ミゼットNiv-Mizzet, Parun198GRNJPN37 枚売り場18/10/16 02:1718/10/16 02:17
漂流自我Unmoored Ego198GRNJPN40 枚売り場18/10/16 02:1718/10/16 02:17

免責事項

本システムは、各カードショップ様の了承のもと自動的にシングルカード価格データを収集・解析し提供しております。 実際の販売価格や在庫は変動しますので、この価格で販売されることを保証するものではありません。 また、カードの状態や販売方法などは各カードショップ様によって異なる他、データは自動解析されたものですので、誤記等が存在する可能性もあります。 購入時に各ショップ様のウェブサイトにてよく御確認ください。
特記無き価格情報は、税込価格です。ショップでの表示が税抜のみの場合は、独自に消費税相当額を加算しています。
本システムを利用したことによるいかなる損害も保証致しかねますので、御認識の程宜しく御願い致します。
© 1999-2018 Wisdom Guild, OWLAIR networks, All rights reserved.
管理者連絡先 | 権利表記 (実行時間:0.49 秒)